Torna al catalogo

STARLINK-31759

AttivoComunicazioniVLEO
NORAD 59740·PAYLOAD·🇺🇸 United States

Lanciato May 13, 2024 da Cape Canaveral Space Force Station

Loading…

Prossimi Passaggi (prossime 24 ore)

TLE

AggiornatoSource: CelesTrak SupGP

Epoca: Sep 14, 2026, 21:05 UTC

1 59740C 24090L   26257.87895833  .00014277  00000+0  51711-3 0  2578
2 59740  43.0009 195.3742 0001355 255.7119 349.7750 15.27572216    12

Traccia STARLINK-31759 in tempo reale con AllMySat

Download on the App Store